Angel Fire, NM

2:07 PM MST on December 06, 2019 (GMT -0700)
Angel Fire

Weather History for KAXX - October, 2019

Change the Weather History Date:

Monday, October 7, 2019

  Actual Average (WUND) Record (WUND)
Temperature  
Mean Temperature 38 °F -  
Max Temperature 61 °F - - (-1)
Min Temperature 16 °F - - (-1)
Degree Days  
Heating Degree Days 26    
Moisture  
Dew Point 23 °F    
Average Humidity 64    
Maximum Humidity 93    
Minimum Humidity 21    
Precipitation  
Precipitation 0.00 in - - ()
Sea Level Pressure  
Sea Level Pressure 30.43 in    
Wind  
Wind Speed 3 mph (WSW)    
Max Wind Speed 17 mph    
Max Gust Speed 24 mph    
Visibility 10 miles    
Events      
Averages and records for this station are not official NWS values.
T = Trace of Precipitation, MM = Missing Value Source: NWS Daily Summary

Daily Weather History Graph

Daily Weather History Graph

Search for Another Location

Airport or City:

Astronomy

Oct. 07, 2019 Rise Set
Actual Time 7:01 AM MDT 6:36 PM MDT
Civil Twilight 6:35 AM MDT 7:01 PM MDT
Nautical Twilight 6:05 AM MDT 7:31 PM MDT
Astronomical Twilight 5:35 AM MDT 8:01 PM MDT
Moon 3:48 PM MDT (10/7) 1:08 AM MDT (10/7)
Length of Visible Light 12h 26m
Length of Day
11h 35m
Waxing Gibbous, 69% of the Moon is Illuminated
Oct 7
Waxing Gibbous
Oct 13
Full
Oct 21
Last Quarter
Oct 27
New
Nov 4
First Quarter

Hourly Weather History & Observations

Time (MDT) Temp. Windchill Dew Point Humidity Pressure Visibility Wind Dir Wind Speed Gust Speed Precip Events Conditions
12:15 AM 26.8 °F - 24.3 °F 90% 30.50 in 10.0 mi Calm Calm - N/A   Clear
12:35 AM 27.0 °F - 23.9 °F 88% 30.50 in 10.0 mi Calm Calm - N/A   Clear
12:55 AM 27.0 °F - 23.4 °F 86% 30.50 in 10.0 mi Calm Calm - N/A   Clear
1:15 AM 23.7 °F - 21.4 °F 91% 30.50 in 10.0 mi Calm Calm - N/A   Clear
1:35 AM 25.2 °F - 22.3 °F 89% 30.50 in 10.0 mi Calm Calm - N/A   Clear
1:55 AM 25.5 °F - 22.5 °F 88% 30.50 in 10.0 mi Calm Calm - N/A   Clear
2:15 AM 23.7 °F - 21.7 °F 92% 30.51 in 10.0 mi Calm Calm - N/A   Clear
2:35 AM 22.6 °F - 19.9 °F 89% 30.51 in 7.0 mi Calm Calm - N/A   Clear
2:55 AM 21.6 °F - 19.4 °F 91% 30.50 in 10.0 mi Calm Calm - N/A   Clear
3:15 AM 22.1 °F - 20.5 °F 93% 30.50 in 7.0 mi Calm Calm - N/A   Clear
3:35 AM 22.1 °F - 19.9 °F 91% 30.50 in 10.0 mi Calm Calm - N/A   Clear
3:55 AM 18.9 °F - 16.7 °F 91% 30.50 in 10.0 mi Calm Calm - N/A   Clear
4:15 AM 20.1 °F - 18.1 °F 92% 30.50 in 10.0 mi Calm Calm - N/A   Clear
4:35 AM 20.1 °F - 17.8 °F 91% 30.50 in 10.0 mi Calm Calm - N/A   Clear
4:55 AM 19.9 °F - 17.1 °F 89% 30.50 in 10.0 mi Calm Calm - N/A   Clear
5:15 AM 20.1 °F - 18.0 °F 91% 30.50 in 10.0 mi Calm Calm - N/A   Clear
5:35 AM 18.1 °F - 16.0 °F 91% 30.50 in 10.0 mi Calm Calm - N/A   Clear
5:55 AM 19.2 °F - 17.2 °F 92% 30.51 in 10.0 mi Calm Calm - N/A   Clear
6:15 AM 17.8 °F - 14.7 °F 88% 30.51 in 10.0 mi Calm Calm - N/A   Clear
6:35 AM 18.5 °F - 16.3 °F 91% 30.51 in 10.0 mi Calm Calm - N/A   Clear
7:00 AM 16.3 °F - 14.0 °F 90% 30.51 in 10.0 mi Calm Calm - N/A   Clear
7:15 AM 16.5 °F - 14.4 °F 91% 30.51 in 10.0 mi Calm Calm - N/A   Clear
7:35 AM 18.5 °F - 15.8 °F 89% 30.50 in 10.0 mi Calm Calm - N/A   Clear
7:55 AM 22.1 °F - 19.8 °F 91% 30.51 in 10.0 mi Calm Calm - N/A   Clear
8:15 AM 26.8 °F - 25.0 °F 93% 30.51 in 10.0 mi Calm Calm - N/A   Clear
8:35 AM 28.2 °F - 25.9 °F 91% 30.52 in 10.0 mi Calm Calm - N/A   Clear
8:55 AM 30.7 °F - 27.7 °F 88% 30.51 in 10.0 mi Calm Calm - N/A   Clear
9:15 AM 33.6 °F 30.6 °F 29.7 °F 85% 30.51 in 10.0 mi NNE 3.5 mph - N/A   Clear
9:35 AM 36.9 °F - 30.2 °F 77% 30.51 in 10.0 mi Calm Calm - N/A   Clear
9:55 AM 39.7 °F - 31.6 °F 73% 30.50 in 10.0 mi Calm Calm - N/A   Clear
10:15 AM 45.7 °F - 32.0 °F 59% 30.49 in 10.0 mi Calm Calm - N/A   Clear
10:35 AM 50.5 °F - 31.1 °F 47% 30.48 in 10.0 mi Calm Calm - N/A   Clear
10:55 AM 53.4 °F - 29.7 °F 40% 30.47 in 10.0 mi WNW 6.9 mph - N/A   Clear
11:15 AM 55.8 °F - 21.4 °F 26% 30.47 in 10.0 mi West 12.7 mph - N/A   Clear
11:35 AM 56.3 °F - 18.0 °F 22% 30.46 in 10.0 mi WSW 10.4 mph 17.3 mph N/A   Clear
11:55 AM 57.2 °F - 18.5 °F 22% 30.45 in 10.0 mi West 15.0 mph 23.0 mph N/A   Clear
12:15 PM 57.4 °F - 19.4 °F 23% 30.44 in 10.0 mi West 13.8 mph 21.9 mph N/A   Clear
12:35 PM 58.1 °F - 19.2 °F 22% 30.43 in 10.0 mi West 15.0 mph 20.7 mph N/A   Clear
12:55 PM 58.1 °F - 18.7 °F 22% 30.43 in 10.0 mi West 17.3 mph 21.9 mph N/A   Clear
1:15 PM 58.8 °F - 19.6 °F 22% 30.42 in 10.0 mi West 11.5 mph 21.9 mph N/A   Clear
1:35 PM 59.2 °F - 20.3 °F 22% 30.40 in 10.0 mi WSW 15.0 mph 20.7 mph N/A   Clear
2:15 PM 61.2 °F - 21.0 °F 21% 30.38 in 10.0 mi West 12.7 mph 19.6 mph N/A   Clear
2:35 PM 60.8 °F - 21.0 °F 22% 30.37 in 10.0 mi West 15.0 mph 24.2 mph N/A   Clear
2:55 PM 61.3 °F - 20.3 °F 21% 30.37 in 10.0 mi West 15.0 mph 21.9 mph N/A   Clear
3:15 PM 61.3 °F - 21.0 °F 21% 30.37 in 10.0 mi West 13.8 mph 19.6 mph N/A   Clear
3:35 PM 61.7 °F - 21.2 °F 21% 30.36 in 10.0 mi West 17.3 mph 20.7 mph N/A   Clear
3:55 PM 61.7 °F - 21.7 °F 22% 30.35 in 10.0 mi WSW 12.7 mph - N/A   Clear
4:15 PM 61.2 °F - 22.1 °F 22% 30.35 in 10.0 mi West 16.1 mph 20.7 mph N/A   Clear
4:35 PM 60.8 °F - 22.1 °F 23% 30.34 in 10.0 mi West 13.8 mph - N/A   Clear
4:55 PM 60.4 °F - 22.1 °F 23% 30.34 in 10.0 mi West 13.8 mph - N/A   Clear
5:15 PM 60.1 °F - 22.6 °F 24% 30.34 in 10.0 mi West 9.2 mph - N/A   Clear
5:35 PM 58.5 °F - 24.1 °F 27% 30.33 in 10.0 mi West 10.4 mph - N/A   Clear
5:55 PM 57.2 °F - 25.5 °F 30% 30.34 in 10.0 mi WNW 5.8 mph - N/A   Clear
6:15 PM 54.7 °F - 26.1 °F 33% 30.33 in 10.0 mi WNW 6.9 mph - N/A   Clear
6:35 PM 52.0 °F - 25.7 °F 36% 30.33 in 10.0 mi Calm Calm - N/A   Clear
6:55 PM 49.1 °F - 27.1 °F 43% 30.33 in 10.0 mi Calm Calm - N/A   Clear
7:15 PM 41.4 °F 39.4 °F 28.4 °F 60% 30.34 in 10.0 mi SSE 3.5 mph - N/A   Clear
7:35 PM 37.6 °F 35.1 °F 28.4 °F 69% 30.33 in 10.0 mi South 3.5 mph - N/A   Clear
7:55 PM 37.4 °F - 28.4 °F 70% 30.34 in 10.0 mi Calm Calm - N/A   Clear
8:15 PM 36.0 °F 31.1 °F 28.6 °F 75% 30.34 in 10.0 mi South 5.8 mph - N/A   Clear
8:35 PM 35.6 °F 30.7 °F 28.4 °F 75% 30.34 in 10.0 mi South 5.8 mph - N/A   Clear
8:55 PM 36.5 °F 33.9 °F 28.4 °F 72% 30.34 in 10.0 mi South 3.5 mph - N/A   Clear
9:15 PM 35.2 °F 31.2 °F 28.4 °F 76% 30.35 in 10.0 mi SW 4.6 mph - N/A   Clear
9:35 PM 35.8 °F 33.0 °F 28.0 °F 73% 30.34 in 10.0 mi SE 3.5 mph - N/A   Clear
9:55 PM 32.0 °F 28.7 °F 27.3 °F 83% 30.34 in 10.0 mi SW 3.5 mph - N/A   Clear
10:15 PM 32.9 °F 28.5 °F 28.0 °F 82% 30.34 in 10.0 mi South 4.6 mph - N/A   Clear
10:35 PM 32.9 °F 29.8 °F 28.0 °F 82% 30.34 in 10.0 mi SSW 3.5 mph - N/A   Clear
10:55 PM 30.9 °F - 27.3 °F 86% 30.34 in 10.0 mi Calm Calm - N/A   Clear
11:15 PM 30.2 °F - 27.5 °F 90% 30.33 in 10.0 mi Calm Calm - N/A   Clear
11:35 PM 29.7 °F - 26.6 °F 88% 30.32 in 10.0 mi Calm Calm - N/A   Clear
11:55 PM 28.9 °F - 26.4 °F 90% 30.32 in 10.0 mi Calm Calm - N/A   Clear